TUI1 KLGA-KDCA

Flight info

Callsign TUI1
Flight time 0h 46m
Altitude 30000
Route BIGGY Q75 MXE CLIPR3
Aircraft B738/M-SDE2E3FGHIRWXY/LB1

Departure

Time 2026-04-22 20:46
Airport LaGuardia Airport (KLGA)

Arrival

Time 2026-04-22 21:33
Airport Ronald Reagan Washington National Airport (KDCA)
Time Latitude Longitude Altitude Speed Heading
2026-04-22 20:00 40.77313 -73.86929 11 ft 0 kts 43°
2026-04-22 20:35 40.77305 -73.86939 11 ft 2 kts 43°
2026-04-22 20:35 40.77293 -73.86953 11 ft 2 kts 43°
2026-04-22 20:36 40.77283 -73.86967 11 ft 1 kts 62°
2026-04-22 20:36 40.77281 -73.86986 11 ft 2 kts 108°
2026-04-22 20:36 40.77290 -73.87002 11 ft 2 kts 140°
2026-04-22 20:36 40.77300 -73.87015 11 ft 2 kts 129°
2026-04-22 20:37 40.77309 -73.87028 11 ft 0 kts 133°
2026-04-22 20:40 40.77298 -73.87013 11 ft 4 kts 132°
2026-04-22 20:40 40.77260 -73.86958 11 ft 9 kts 132°
2026-04-22 20:40 40.77216 -73.86894 11 ft 9 kts 130°
2026-04-22 20:41 40.77185 -73.86823 11 ft 8 kts 98°
2026-04-22 20:41 40.77213 -73.86755 11 ft 9 kts 44°
2026-04-22 20:41 40.77278 -73.86674 11 ft 5 kts 42°
2026-04-22 20:41 40.77301 -73.86646 11 ft 4 kts 42°
2026-04-22 20:42 40.77351 -73.86590 9 ft 14 kts 39°
2026-04-22 20:42 40.77447 -73.86568 8 ft 15 kts 349°
2026-04-22 20:42 40.77531 -73.86629 8 ft 14 kts 304°
2026-04-22 20:42 40.77581 -73.86742 8 ft 14 kts 300°
2026-04-22 20:43 40.77636 -73.86847 9 ft 13 kts 307°
2026-04-22 20:43 40.77684 -73.86944 10 ft 12 kts 300°
2026-04-22 20:43 40.77725 -73.87035 11 ft 11 kts 301°
2026-04-22 20:43 40.77764 -73.87118 11 ft 11 kts 302°
2026-04-22 20:44 40.77824 -73.87241 11 ft 21 kts 302°
2026-04-22 20:44 40.77913 -73.87426 11 ft 23 kts 302°
2026-04-22 20:44 40.78000 -73.87607 11 ft 23 kts 302°
2026-04-22 20:44 40.78083 -73.87781 10 ft 20 kts 302°
2026-04-22 20:45 40.78151 -73.87859 8 ft 12 kts 348°
2026-04-22 20:45 40.78206 -73.87807 8 ft 11 kts 99°
2026-04-22 20:45 40.78174 -73.87733 8 ft 8 kts 123°
2026-04-22 20:45 40.78099 -73.87579 10 ft 48 kts 122°
2026-04-22 20:46 40.77255 -73.85812 84 ft 162 kts 122°
2026-04-22 20:46 40.76653 -73.84615 832 ft 158 kts 130°
2026-04-22 20:46 40.75723 -73.83850 1367 ft 166 kts 165°
2026-04-22 20:47 40.74561 -73.83634 1878 ft 174 kts 173°
2026-04-22 20:47 40.73293 -73.83379 2215 ft 194 kts 167°
2026-04-22 20:47 40.71946 -73.82922 2648 ft 208 kts 165°
2026-04-22 20:47 40.70495 -73.82644 3190 ft 214 kts 186°
2026-04-22 20:48 40.68962 -73.83043 3523 ft 231 kts 197°
2026-04-22 20:48 40.67408 -73.83665 4056 ft 240 kts 204°
2026-04-22 20:48 40.65939 -73.84680 4724 ft 241 kts 218°
2026-04-22 20:48 40.64621 -73.86039 5370 ft 245 kts 224°
2026-04-22 20:49 40.63317 -73.87499 6105 ft 247 kts 225°
2026-04-22 20:49 40.61989 -73.88921 6833 ft 251 kts 222°
2026-04-22 20:49 40.60521 -73.90256 7324 ft 266 kts 217°
2026-04-22 20:49 40.59061 -73.91795 7820 ft 271 kts 237°
2026-04-22 20:50 40.58351 -73.94013 8514 ft 265 kts 265°
2026-04-22 20:50 40.58267 -73.96426 9283 ft 265 kts 272°
2026-04-22 20:50 40.58163 -73.98838 10020 ft 270 kts 267°
2026-04-22 20:50 40.57894 -74.01287 10663 ft 279 kts 263°
2026-04-22 20:51 40.57508 -74.03872 11104 ft 296 kts 262°
2026-04-22 20:51 40.57063 -74.06569 11561 ft 309 kts 261°
2026-04-22 20:51 40.56593 -74.09367 12210 ft 317 kts 261°
2026-04-22 20:51 40.56121 -74.12195 12935 ft 321 kts 262°
2026-04-22 20:52 40.55648 -74.15054 13691 ft 325 kts 262°
2026-04-22 20:52 40.55172 -74.17954 14504 ft 327 kts 262°
2026-04-22 20:52 40.54691 -74.20896 15243 ft 332 kts 262°
2026-04-22 20:52 40.54205 -74.23864 16056 ft 334 kts 262°
2026-04-22 20:53 40.53718 -74.26829 16757 ft 338 kts 262°
2026-04-22 20:53 40.53218 -74.29864 17503 ft 342 kts 263°
2026-04-22 20:53 40.52714 -74.32924 18268 ft 345 kts 263°
2026-04-22 20:53 40.52211 -74.35983 19002 ft 348 kts 263°
2026-04-22 20:54 40.51695 -74.39117 19710 ft 351 kts 263°
2026-04-22 20:54 40.51183 -74.42225 20391 ft 354 kts 263°
2026-04-22 20:54 40.50661 -74.45393 21091 ft 357 kts 263°
2026-04-22 20:54 40.50134 -74.48582 21749 ft 360 kts 263°
2026-04-22 20:55 40.49600 -74.51811 22384 ft 363 kts 262°
2026-04-22 20:55 40.49062 -74.55055 22996 ft 367 kts 262°
2026-04-22 20:55 40.48523 -74.58296 23610 ft 370 kts 263°
2026-04-22 20:55 40.47966 -74.61636 24200 ft 373 kts 263°
2026-04-22 20:56 40.47419 -74.64915 24743 ft 377 kts 263°
2026-04-22 20:56 40.46849 -74.68319 25327 ft 380 kts 262°
2026-04-22 20:56 40.46280 -74.71716 25844 ft 384 kts 262°
2026-04-22 20:56 40.45706 -74.75136 26412 ft 386 kts 263°
2026-04-22 20:57 40.45125 -74.78587 26976 ft 388 kts 263°
2026-04-22 20:57 40.44544 -74.82022 27728 ft 384 kts 263°
2026-04-22 20:57 40.43966 -74.85426 28382 ft 383 kts 263°
2026-04-22 20:57 40.43388 -74.88832 28632 ft 384 kts 263°
2026-04-22 20:58 40.42799 -74.92218 28516 ft 373 kts 262°
2026-04-22 20:58 40.42061 -74.95414 28524 ft 365 kts 256°
2026-04-22 20:58 40.40935 -74.98428 28432 ft 377 kts 245°
2026-04-22 20:58 40.39348 -75.01272 28214 ft 386 kts 237°
2026-04-22 20:59 40.37581 -75.03880 28017 ft 384 kts 234°
2026-04-22 20:59 40.35728 -75.06412 28017 ft 384 kts 233°
2026-04-22 20:59 40.31986 -75.11443 28013 ft 386 kts 233°
2026-04-22 21:00 40.28276 -75.16512 27799 ft 389 kts 234°
2026-04-22 21:00 40.26416 -75.19083 27397 ft 386 kts 233°
2026-04-22 21:00 40.24586 -75.21619 27003 ft 380 kts 233°
2026-04-22 21:01 40.22793 -75.24107 26614 ft 376 kts 233°
2026-04-22 21:01 40.21008 -75.26588 26161 ft 376 kts 234°
2026-04-22 21:01 40.19212 -75.29090 25833 ft 368 kts 233°
2026-04-22 21:01 40.17484 -75.31491 25344 ft 366 kts 233°
2026-04-22 21:02 40.15735 -75.33926 24841 ft 364 kts 233°
2026-04-22 21:02 40.14013 -75.36322 24361 ft 361 kts 233°
2026-04-22 21:02 40.12317 -75.38680 23960 ft 356 kts 233°
2026-04-22 21:02 40.10620 -75.41035 23699 ft 352 kts 233°
2026-04-22 21:03 40.08949 -75.43358 23439 ft 354 kts 233°
2026-04-22 21:03 40.07281 -75.45675 23169 ft 353 kts 233°
2026-04-22 21:03 40.05605 -75.48000 22906 ft 352 kts 233°
2026-04-22 21:03 40.03912 -75.50345 22639 ft 351 kts 233°
2026-04-22 21:04 40.02254 -75.52638 22375 ft 349 kts 233°
2026-04-22 21:04 40.00600 -75.54924 22116 ft 348 kts 233°
2026-04-22 21:04 39.98926 -75.57235 21852 ft 347 kts 233°
2026-04-22 21:04 39.97272 -75.59518 21591 ft 346 kts 233°
2026-04-22 21:05 39.95635 -75.61774 21330 ft 345 kts 233°
2026-04-22 21:05 39.93999 -75.64028 21071 ft 344 kts 233°
2026-04-22 21:05 39.92366 -75.66316 20811 ft 342 kts 234°
2026-04-22 21:05 39.90876 -75.68718 20552 ft 339 kts 239°
2026-04-22 21:06 39.89542 -75.71175 20296 ft 335 kts 241°
2026-04-22 21:06 39.88234 -75.73714 20038 ft 334 kts 242°
2026-04-22 21:06 39.86956 -75.76230 19780 ft 333 kts 242°
2026-04-22 21:06 39.85692 -75.78711 19522 ft 332 kts 242°
2026-04-22 21:07 39.84415 -75.81200 19264 ft 333 kts 242°
2026-04-22 21:07 39.83132 -75.83687 19008 ft 332 kts 242°
2026-04-22 21:07 39.81840 -75.86176 18752 ft 331 kts 242°
2026-04-22 21:07 39.80549 -75.88657 18506 ft 330 kts 242°
2026-04-22 21:08 39.79273 -75.91101 18249 ft 330 kts 242°
2026-04-22 21:08 39.77984 -75.93563 18004 ft 329 kts 242°
2026-04-22 21:08 39.76703 -75.96004 17764 ft 328 kts 241°
2026-04-22 21:08 39.75420 -75.98448 17509 ft 326 kts 241°
2026-04-22 21:09 39.74130 -76.00906 17252 ft 325 kts 242°
2026-04-22 21:09 39.72866 -76.03310 16996 ft 324 kts 242°
2026-04-22 21:09 39.71607 -76.05706 16742 ft 324 kts 242°
2026-04-22 21:09 39.70336 -76.08124 16483 ft 322 kts 241°
2026-04-22 21:10 39.69075 -76.10518 16227 ft 319 kts 241°
2026-04-22 21:10 39.67825 -76.12892 15971 ft 318 kts 242°
2026-04-22 21:10 39.66589 -76.15234 15723 ft 317 kts 242°
2026-04-22 21:10 39.65346 -76.17590 15469 ft 316 kts 241°
2026-04-22 21:11 39.64116 -76.19922 15214 ft 315 kts 241°
2026-04-22 21:11 39.62874 -76.22275 14957 ft 313 kts 241°
2026-04-22 21:11 39.61655 -76.24578 14710 ft 312 kts 241°
2026-04-22 21:11 39.60416 -76.26917 14462 ft 313 kts 241°
2026-04-22 21:12 39.59113 -76.29160 14213 ft 314 kts 235°
2026-04-22 21:12 39.57556 -76.31150 13965 ft 318 kts 225°
2026-04-22 21:12 39.55772 -76.32868 13724 ft 320 kts 220°
2026-04-22 21:12 39.53887 -76.34475 13477 ft 321 kts 218°
2026-04-22 21:13 39.52025 -76.36015 13236 ft 319 kts 218°
2026-04-22 21:13 39.50165 -76.37569 12987 ft 318 kts 219°
2026-04-22 21:13 39.48322 -76.39136 12730 ft 312 kts 219°
2026-04-22 21:13 39.46544 -76.40668 12360 ft 309 kts 219°
2026-04-22 21:14 39.44769 -76.42208 12017 ft 306 kts 219°
2026-04-22 21:14 39.42977 -76.43767 11805 ft 309 kts 219°
2026-04-22 21:14 39.41204 -76.45312 11554 ft 309 kts 219°
2026-04-22 21:14 39.39433 -76.46848 11304 ft 307 kts 219°
2026-04-22 21:15 39.37671 -76.48374 11063 ft 306 kts 219°
2026-04-22 21:15 39.35901 -76.49906 10806 ft 305 kts 219°
2026-04-22 21:15 39.34128 -76.51439 10551 ft 304 kts 219°
2026-04-22 21:15 39.32380 -76.52949 10308 ft 303 kts 219°
2026-04-22 21:16 39.30621 -76.54469 10053 ft 302 kts 219°
2026-04-22 21:16 39.28919 -76.55934 9981 ft 288 kts 219°
2026-04-22 21:16 39.27265 -76.57354 9990 ft 281 kts 219°
2026-04-22 21:16 39.25634 -76.58764 9988 ft 283 kts 219°
2026-04-22 21:17 39.24009 -76.60170 9991 ft 283 kts 219°
2026-04-22 21:17 39.22360 -76.61594 9982 ft 283 kts 219°
2026-04-22 21:17 39.20728 -76.63000 9987 ft 282 kts 219°
2026-04-22 21:17 39.19105 -76.64397 9991 ft 284 kts 219°
2026-04-22 21:18 39.17453 -76.65836 9991 ft 284 kts 221°
2026-04-22 21:18 39.15927 -76.67424 9876 ft 283 kts 226°
2026-04-22 21:18 39.14485 -76.69119 9620 ft 279 kts 228°
2026-04-22 21:18 39.13069 -76.70842 9362 ft 276 kts 228°
2026-04-22 21:19 39.11686 -76.72521 9113 ft 275 kts 228°
2026-04-22 21:19 39.10297 -76.74188 8859 ft 273 kts 228°
2026-04-22 21:19 39.08903 -76.75845 8607 ft 273 kts 227°
2026-04-22 21:19 39.07510 -76.77495 8360 ft 272 kts 227°
2026-04-22 21:20 39.06113 -76.79145 8109 ft 269 kts 227°
2026-04-22 21:20 39.04733 -76.80775 7861 ft 269 kts 227°
2026-04-22 21:20 39.03367 -76.82388 7618 ft 268 kts 227°
2026-04-22 21:20 39.01994 -76.84009 7371 ft 267 kts 227°
2026-04-22 21:21 39.00630 -76.85618 7122 ft 266 kts 227°
2026-04-22 21:21 38.99278 -76.87212 6878 ft 265 kts 227°
2026-04-22 21:21 38.98013 -76.88925 6625 ft 259 kts 239°
2026-04-22 21:21 38.97284 -76.90967 6375 ft 250 kts 263°
2026-04-22 21:22 38.97252 -76.93154 6147 ft 245 kts 277°
2026-04-22 21:22 38.97379 -76.95348 5900 ft 244 kts 276°
2026-04-22 21:22 38.97470 -76.97515 5655 ft 245 kts 275°
2026-04-22 21:22 38.97542 -76.99686 5408 ft 245 kts 274°
2026-04-22 21:23 38.97712 -77.01856 5162 ft 243 kts 284°
2026-04-22 21:23 38.98422 -77.03780 4918 ft 242 kts 309°
2026-04-22 21:23 38.99632 -77.05282 4680 ft 238 kts 317°
2026-04-22 21:23 39.00862 -77.06667 4453 ft 231 kts 317°
2026-04-22 21:24 39.02019 -77.08016 4227 ft 222 kts 316°
2026-04-22 21:24 39.03135 -77.09357 3974 ft 214 kts 316°
2026-04-22 21:24 39.04189 -77.10648 3730 ft 207 kts 315°
2026-04-22 21:24 39.05217 -77.11932 3484 ft 202 kts 315°
2026-04-22 21:25 39.06205 -77.13167 3243 ft 198 kts 315°
2026-04-22 21:25 39.07195 -77.14401 3011 ft 193 kts 315°
2026-04-22 21:25 39.08117 -77.15550 2979 ft 181 kts 315°
2026-04-22 21:25 39.09038 -77.16693 2992 ft 183 kts 315°
2026-04-22 21:26 39.09943 -77.17818 2991 ft 182 kts 315°
2026-04-22 21:26 39.10819 -77.19008 2989 ft 181 kts 303°
2026-04-22 21:26 39.11137 -77.20533 2991 ft 184 kts 266°
2026-04-22 21:26 39.10614 -77.22047 2994 ft 190 kts 232°
2026-04-22 21:27 39.09671 -77.23235 2989 ft 187 kts 227°
2026-04-22 21:27 39.08620 -77.24217 2985 ft 193 kts 205°
2026-04-22 21:27 39.07264 -77.24372 2993 ft 200 kts 174°
2026-04-22 21:27 39.05895 -77.24027 2987 ft 201 kts 171°
2026-04-22 21:28 39.04531 -77.23664 2987 ft 202 kts 171°
2026-04-22 21:28 39.03137 -77.23304 2985 ft 201 kts 172°
2026-04-22 21:28 39.01776 -77.22925 2981 ft 203 kts 164°
2026-04-22 21:28 39.00565 -77.21999 2988 ft 204 kts 141°
2026-04-22 21:29 38.99551 -77.20733 2984 ft 205 kts 131°
2026-04-22 21:29 38.98672 -77.19263 2984 ft 205 kts 123°
2026-04-22 21:29 38.97922 -77.17731 2965 ft 205 kts 121°
2026-04-22 21:29 38.97159 -77.16198 2854 ft 203 kts 125°
2026-04-22 21:30 38.96333 -77.14720 2707 ft 203 kts 127°
2026-04-22 21:30 38.95347 -77.13394 2313 ft 209 kts 143°
2026-04-22 21:30 38.94118 -77.12368 1928 ft 213 kts 153°
2026-04-22 21:30 38.92852 -77.11445 1495 ft 209 kts 148°
2026-04-22 21:31 38.91728 -77.10438 1308 ft 187 kts 146°
2026-04-22 21:31 38.90818 -77.09313 1041 ft 175 kts 123°
2026-04-22 21:31 38.90374 -77.07934 906 ft 166 kts 115°
2026-04-22 21:31 38.89904 -77.06660 752 ft 151 kts 127°
2026-04-22 21:32 38.89148 -77.05734 633 ft 149 kts 146°
2026-04-22 21:32 38.88309 -77.04971 503 ft 148 kts 145°
2026-04-22 21:32 38.87486 -77.04220 306 ft 143 kts 155°
2026-04-22 21:32 38.86544 -77.03915 123 ft 137 kts 178°
2026-04-22 21:33 38.85596 -77.03823 21 ft 126 kts 176°
2026-04-22 21:33 38.84989 -77.03760 21 ft 47 kts 176°
2026-04-22 21:33 38.84883 -77.03807 21 ft 11 kts 256°
2026-04-22 21:33 38.84877 -77.03867 22 ft 2 kts 267°
2026-04-22 21:34 38.84877 -77.03870 22 ft 0 kts 267°
2026-04-22 21:34 38.84875 -77.03909 23 ft 8 kts 266°
2026-04-22 21:34 38.84908 -77.03950 24 ft 7 kts 352°
2026-04-22 21:34 38.84956 -77.03958 24 ft 6 kts 352°
2026-04-22 21:35 38.85001 -77.03964 24 ft 6 kts 355°
2026-04-22 21:35 38.85050 -77.03968 24 ft 10 kts 357°
2026-04-22 21:35 38.85146 -77.03976 24 ft 14 kts 355°
2026-04-22 21:35 38.85242 -77.03987 25 ft 13 kts 356°
2026-04-22 21:36 38.85323 -77.04020 25 ft 12 kts 302°
2026-04-22 21:36 38.85342 -77.04085 26 ft 6 kts 316°
2026-04-22 21:36 38.85361 -77.04106 27 ft 1 kts 322°
2026-04-22 21:36 38.85367 -77.04112 27 ft 0 kts 322°
2026-04-22 21:37 38.85368 -77.04112 27 ft 0 kts 321°